This demonstration page uses our WeatherBlox Daily Observations layout. Learn more.

Left ArrowRight Arrow

Hourly Observations for February 14, 2018

Temp ( °F °C ) Dew Point ( °F °C ) Humidity (%) Winds ( mph kmh ) Pressure ( in mb ) Visibility ( mi km ) Precip ( " mm )
12:53 am 00:53 Clear 23 -5 19 -7.2 85 85 SW 5 7 30.14 1021 9 14 0.00 0.00
1:53 am 01:53 Clear 24 -4.4 20 -6.7 84 84 WSW 5 7 30.11 1020 10 16 0.00 0.00
2:53 am 02:53 Clear 24 -4.4 19 -7.2 81 81 WSW 5 7 30.08 1019 10 16 0.00 0.00
3:53 am 03:53 Clear 24 -4.4 19 -7.2 81 81 WSW 3 6 30.06 1018 10 16 0.00 0.00
4:53 am 04:53 Clear 21 -6.1 17 -8.3 85 85 W 5 7 30.04 1017 10 16 0.00 0.00
5:53 am 05:53 Clear 28 -2.2 22 -5.6 78 78 WSW 3 6 30.02 1017 10 16 0.00 0.00
6:53 am 06:53 Clear 27 -2.8 21 -6.1 78 78 WSW 5 7 30.02 1017 10 16 0.00 0.00
7:53 am 07:53 Sunny 26 -3.3 20 -6.7 78 78 SSW 6 9 30.03 1017 10 16 0.00 0.00
8:53 am 08:53 Sunny 28 -2.2 22 -5.6 78 78 SW 6 9 30.03 1017 10 16 0.00 0.00
9:53 am 09:53 Sunny 33 0.6 25 -3.9 72 72 SW 7 11 30.01 1016 10 16 0.00 0.00
10:53 am 10:53 Sunny 34 1.1 27 -2.8 76 76 WSW 6 9 30.00 1016 10 16 0.00 0.00
11:53 am 11:53 Sunny 38 3.3 29 -1.7 70 70 SW 6 9 29.97 1015 10 16 0.00 0.00
12:53 pm 12:53 Sunny 42 5.6 30 -1.1 62 62 SSW 6 9 29.93 1014 10 16 0.00 0.00
1:53 pm 13:53 Sunny 41 5 32 0 70 70 S 9 15 29.90 1013 10 16 0.00 0.00
2:53 pm 14:53 Sunny 43 6.1 32 0 65 65 SSW 7 11 29.88 1012 10 16 0.00 0.00
3:53 pm 15:53 Sunny 43 6.1 33 0.6 68 68 SSW 10 17 29.86 1011 10 16 0.00 0.00
4:53 pm 16:53 Sunny 43 6.1 34 1.1 71 71 S 7 11 29.85 1011 10 16 0.00 0.00
5:53 pm 17:53 Sunny 41 5 33 0.6 73 73 SSW 7 11 29.84 1011 10 16 0.00 0.00
6:53 pm 18:53 Clear 40 4.4 32 0 73 73 Calm 29.82 1010 10 16 0.00 0.00
7:53 pm 19:53 Clear 39 3.9 31 -0.6 73 73 Calm 29.81 1009 10 16 0.00 0.00
8:53 pm 20:53 Clear 37 2.8 31 -0.6 79 79 Calm 29.80 1009 10 16 0.00 0.00
9:53 pm 21:53 Clear 36 2.2 31 -0.6 82 82 Calm 29.78 1008 10 16 0.00 0.00
10:53 pm 22:53 Clear 36 2.2 31 -0.6 82 82 NNE 7 11 29.80 1009 10 16 0.00 0.00
11:53 pm 23:53 Clear 36 2.2 32 0 86 86 NE 5 7 29.77 1008 10 16 0.00 0.00

Powered by AerisWeather